Tracking 26321 objects as of 27-Nov-2022
HD Live streaming from Space Station
objects crossing your sky now

STARLINK-3886

Track STARLINK-3886 now!
10-day predictions
STARLINK-3886 is classified as:


NORAD ID: 52582
Int'l Code: 2022-051AY
Perigee: 545.1 km
Apogee: 548.7 km
Inclination: 53.2 °
Period: 95.4 minutes
Semi major axis: 6917 km
RCS: Unknown
Launch date: May 13, 2022
Source: United States (US)
Launch site: AIR FORCE WESTERN TEST RANGE (AFWTR)
aabbcc
Your satellite tracking list
Your tracking list is empty




NASA's NSSDC Master Catalog

Two Line Element Set (TLE):
1 52582U 22051AY  22330.80249047  .00000724  00000-0  63627-4 0  9997
2 52582  53.2185 101.1296 0002614  45.8095 314.3111 15.08841024 30596
Source of the keplerian elements: AFSPC